Powrót do katalogu

STARLINK-35011

AktywnyŁącznośćVLEO
NORAD 66082·PAYLOAD·🇺🇸 United States

Wystrzelony Oct 19, 2025 z Cape Canaveral Space Force Station

Loading…

Następne Przeloty (najbliższe 24 godziny)

TLE

ŚwieżeSource: CelesTrak SupGP

Epoka: Sep 15, 2026, 03:28 UTC

1 66082C 25235AA  26258.14493056 -.00030496  00000+0 -98058-3 0  2588
2 66082  53.1578  83.5758 0001243  88.1410 203.3466 15.31720434    16

Śledź STARLINK-35011 w czasie rzeczywistym z AllMySat

Download on the App Store